Theta_e
292 296 296 294 294 294 290 290 287 289 290 293 297 298 296 295 295 294 293 294 294 293 292 293 295 297 298 298 298 298 297 298 298 299 300 300 299 300 301 302 301 299 297 296
290 296 296 294 296 296 294 292 291 293 290 296 294 295 294 295 295 294 294 295 294 294 294 294 296 296 298 298 298 297 297 298 299 299 300 299 298 298 300 301 301 298 297 295
284 294 292 287 292 294 294 294 294 290 293 294 294 296 295 294 296 295 295 295 294 294 294 295 296 296 296 298 298 297 297 298 299 299 299 299 297 296 297 299 300 298 295 293
285 288 281 291 297 298 295 296 297 296 296 296 295 294 295 296 295 295 295 294 294 294 294 295 298 298 298 299 297 297 297 297 298 299 298 298 295 294 295 298 299 298 294 293
284 284 289 295 296 294 292 292 298 297 295 294 295 295 294 297 296 295 295 294 293 294 294 298 298 299 298 296 297 297 297 297 298 298 296 293 293 292 294 295 298 297 295 294
284 283 283 292 298 300 297 287 298 297 295 294 295 290 292 295 296 294 294 293 293 294 295 297 299 299 296 295 295 296 297 297 298 298 295 290 290 291 292 295 296 294 293 292
282 282 289 297 300 300 288 289 297 298 297 295 294 294 294 295 293 294 293 293 293 293 293 297 299 296 295 295 295 296 297 299 299 298 296 291 290 289 289 292 293 292 292 292
286 284 284 300 299 293 296 295 298 298 296 295 294 294 294 293 292 292 292 293 293 293 292 294 296 295 294 294 296 297 298 299 299 298 296 294 292 290 290 290 291 291 291 292
291 291 298 299 298 297 298 299 298 297 297 296 294 293 293 292 291 292 292 293 293 292 292 293 295 295 294 295 297 299 299 299 298 298 297 295 295 294 291 290 289 290 290 291
293 296 298 301 302 300 301 300 300 299 298 297 295 294 292 291 291 291 292 292 293 293 292 293 294 296 296 297 299 299 298 298 296 296 297 296 294 294 293 292 290 290 291 291
294 298 301 302 302 301 301 300 299 299 298 297 296 293 292 291 291 291 292 293 293 293 293 294 296 297 298 299 299 298 297 297 296 295 295 295 295 295 294 295 292 292 291 290
294 301 299 301 302 302 301 300 300 298 297 297 296 293 292 291 291 292 292 293 293 294 294 296 296 298 299 299 298 296 296 295 294 294 294 295 294 294 293 292 292 290 290 290
300 303 302 302 303 303 301 300 300 299 298 296 294 294 293 291 291 294 293 294 294 295 296 296 298 299 300 300 300 298 296 294 293 294 294 294 294 293 294 295 293 292 291 290
303 305 302 302 301 301 301 301 301 299 298 296 295 294 293 292 293 293 294 295 296 296 297 298 299 299 301 300 300 300 300 295 296 296 295 294 294 294 293 293 295 297 294 292
304 304 303 302 300 300 301 300 298 296 295 294 295 294 293 292 293 294 295 296 297 297 298 299 300 300 301 300 300 300 299 299 299 298 296 295 295 294 294 294 294 294 295 294
303 302 302 301 299 299 299 299 298 296 296 294 294 294 294 294 294 295 296 297 296 296 298 299 299 301 301 300 300 299 299 296 295 296 295 296 295 295 294 294 294 294 294 295
300 299 299 298 299 299 299 300 300 298 296 295 295 295 294 294 294 295 296 297 298 298 299 299 299 300 301 301 301 302 300 300 295 295 295 295 295 295 295 294 294 294 295 294
305 306 305 303 300 299 299 299 299 298 297 297 296 295 294 294 294 295 297 298 297 297 298 298 299 300 302 302 301 300 300 301 299 296 295 296 296 295 295 295 295 295 295 294
305 304 303 303 302 301 300 300 299 299 298 297 296 295 295 295 296 297 297 296 296 296 298 300 298 299 297 297 298 300 301 299 296 295 295 293 296 297 296 295 295 296 296 296
304 304 304 303 303 302 301 300 299 298 298 298 297 295 295 295 297 297 297 296 297 298 300 301 300 299 299 300 293 296 295 295 296 296 296 297 297 297 297 294 297 297 298 298
304 304 303 302 302 302 302 301 299 298 298 298 297 296 296 296 298 298 296 296 299 299 300 298 300 301 301 297 294 294 295 297 296 297 297 296 296 296 296 296 297 296 296 296
303 304 303 303 301 301 301 300 300 299 298 298 298 297 296 296 297 298 299 298 299 295 299 301 301 295 298 291 293 297 297 297 297 296 295 295 294 294 293 293 292 292 293 293
303 305 304 303 301 299 299 299 299 299 298 298 298 297 297 297 298 298 298 300 301 298 301 300 289 286 286 296 298 298 297 296 295 294 293 293 292 292 291 290 290 290 290 290
303 304 303 301 300 299 297 296 298 299 299 299 299 300 299 298 297 299 300 296 294 297 300 293 290 286 289 296 296 295 294 294 293 293 292 288 291 290 290 289 288 289 288 288
303 301 301 300 299 298 297 297 297 297 298 298 299 301 302 302 301 299 300 302 294 298 299 286 286 287 295 294 294 293 293 292 292 292 291 290 289 288 288 287 287 286 286 286
300 300 301 301 299 298 298 298 297 297 298 298 300 303 303 303 301 301 301 299 302 296 295 294 295 295 294 294 294 293 292 291 291 289 289 288 287 287 286 286 286 286 286 286
299 298 299 298 298 299 299 297 297 297 299 300 301 303 302 302 301 300 298 304 300 297 296 295 295 294 294 293 292 291 290 289 287 288 287 287 286 286 286 286 286 286 287 287
Wind_Speed
1 3 3 3 4 6 7 6 7 7 8 8 9 10 8 10 11 12 11 10 7 6 5 4 3 2 0 0 3 3 4 4 5 5 4 5 6 5 4 4 4 5 7 8
2 0 2 2 6 6 6 3 5 3 6 2 4 9 8 11 13 13 12 10 8 6 6 4 3 3 1 0 3 3 4 4 5 5 5 5 5 6 5 4 4 4 6 7
3 2 4 5 6 4 4 4 5 6 8 6 4 9 13 13 13 13 12 10 9 7 6 5 4 4 2 1 1 3 3 4 5 5 6 6 5 6 5 5 4 4 5 5
3 3 2 9 3 7 4 2 4 1 2 1 5 4 6 4 9 9 10 9 7 6 4 5 4 4 2 2 2 2 2 4 5 5 6 6 5 6 5 4 3 3 4 5
6 3 5 7 3 4 5 5 4 5 5 5 6 5 3 3 4 6 7 6 6 5 5 4 4 5 3 3 2 1 3 4 4 5 5 6 6 6 5 4 3 3 3 5
3 4 6 8 4 2 4 6 6 8 9 11 6 4 6 8 7 7 7 6 7 6 3 4 4 4 3 2 1 2 3 4 4 4 4 5 4 5 3 3 3 3 4 4
3 3 7 8 5 1 5 10 6 8 10 12 6 4 3 10 6 6 6 7 6 5 5 4 4 4 3 2 3 3 3 3 4 3 3 4 3 3 3 4 3 4 4 4
3 4 6 6 5 6 8 1 5 6 7 6 6 6 9 8 9 8 7 6 6 5 5 4 2 3 3 2 3 3 3 4 4 3 2 1 3 3 2 4 4 4 4 4
9 10 5 5 4 2 6 6 6 8 6 8 9 5 9 8 8 7 7 6 5 6 5 4 3 3 4 3 3 3 3 4 4 4 3 3 2 3 2 2 2 3 3 4
5 4 5 4 2 4 6 5 6 6 10 9 8 11 7 8 7 6 5 5 5 5 5 4 4 4 4 3 4 3 4 5 4 4 4 3 3 3 3 3 3 3 3 4
2 2 0 4 6 6 5 6 9 7 5 8 12 9 9 7 7 6 6 4 5 6 5 5 4 3 3 4 4 2 2 3 4 3 3 4 4 4 4 5 5 4 4 3
7 9 7 5 8 8 9 8 11 10 7 5 7 12 8 7 6 6 6 5 5 5 5 5 3 1 3 2 3 1 3 3 3 3 3 3 4 6 9 12 10 12 12 7
5 5 3 3 6 5 7 9 7 9 8 13 7 9 9 6 6 9 6 6 6 6 5 4 3 0 2 2 1 2 1 3 2 3 3 3 3 3 6 5 8 12 12 12
4 9 3 3 6 7 10 9 10 8 7 8 9 8 7 8 6 8 8 7 6 5 4 3 0 3 2 2 2 1 2 3 2 3 3 3 4 4 3 3 5 6 5 5
8 3 4 9 9 8 9 11 10 9 7 7 7 8 9 10 9 9 6 6 5 4 3 2 2 5 2 2 3 3 3 3 3 3 3 4 4 4 4 3 4 5 6 4
5 6 6 9 11 11 12 9 10 9 9 7 9 9 9 8 7 7 6 6 5 5 5 4 5 5 2 3 3 2 3 6 4 3 4 5 3 4 4 4 5 5 6 5
8 5 5 4 12 15 16 13 12 12 10 10 10 8 9 8 7 7 6 6 5 5 5 5 7 3 4 5 4 1 2 3 5 3 3 4 4 4 4 4 4 5 6 4
5 12 14 12 14 11 10 8 10 12 10 10 9 9 9 10 10 8 6 5 4 4 5 6 5 4 4 4 4 2 2 3 3 4 4 4 3 4 4 4 5 5 5 4
5 8 9 11 14 14 13 11 10 9 10 11 11 10 9 8 8 6 5 6 6 5 4 5 7 5 4 5 4 1 2 2 3 3 3 3 3 4 5 4 4 5 5 6
5 5 5 8 12 14 13 9 11 10 9 10 8 8 8 8 8 7 6 7 7 5 3 5 5 4 4 3 1 1 1 2 3 2 2 4 5 5 5 7 7 7 7 7
10 10 12 13 12 12 12 14 13 11 11 11 12 11 10 8 8 6 6 4 4 5 4 4 4 2 2 3 2 2 1 2 4 4 4 5 5 6 6 7 7 7 7 7
9 12 13 12 13 11 10 11 10 11 11 10 7 8 10 9 7 5 3 4 3 6 3 3 3 3 3 3 2 2 6 7 5 4 5 6 6 6 7 7 7 7 7 7
8 13 14 15 15 12 11 11 11 12 12 11 11 10 10 8 7 7 4 4 3 4 3 3 4 4 3 4 5 6 7 7 6 6 6 6 6 6 6 6 6 7 7 7
7 10 11 12 15 13 13 6 9 9 9 8 8 9 10 7 3 1 3 7 6 5 4 4 5 7 6 6 6 6 7 7 7 6 6 6 6 6 6 6 6 7 7 7
10 13 14 15 14 8 12 11 10 8 9 7 8 7 8 7 7 5 3 3 7 6 4 5 8 8 7 7 7 7 7 6 6 6 6 6 6 6 6 6 7 7 7 7
11 10 9 8 9 10 10 9 8 6 7 6 4 5 5 5 5 7 5 5 4 7 5 6 6 7 8 8 8 8 7 7 7 6 6 6 6 6 6 6 7 7 7 7
9 9 12 9 7 9 9 9 9 7 6 7 6 5 6 5 5 6 6 5 5 6 7 7 7 8 8 8 8 8 8 7 7 6 6 6 6 6 6 6 7 6 6 6
Wind_Direction
99 143 144 188 211 169 184 199 165 249 207 250 206 188 165 141 139 147 154 159 163 166 176 164 140 126 175 284 22 14 22 18 357 348 344 334 342 338 343 24 23 21 11 5
109 81 80 281 264 236 217 189 246 204 259 214 94 102 136 159 160 163 167 166 166 173 164 163 160 180 234 61 34 22 24 3 339 348 346 342 343 339 336 346 11 26 18 5
201 16 45 335 250 245 245 193 159 172 231 155 161 162 169 168 172 170 169 162 168 169 169 170 179 183 219 176 64 41 17 344 338 343 346 345 343 350 349 340 351 36 22 10
141 46 201 237 235 234 226 263 203 228 175 137 118 92 100 140 161 154 152 156 162 161 168 185 168 196 200 110 57 47 360 340 343 346 346 337 352 1 354 353 359 33 20 11
128 174 284 306 184 156 187 260 203 151 115 99 117 74 34 137 130 144 147 149 158 159 178 179 171 191 107 78 43 2 352 346 350 1 357 347 354 351 1 358 13 26 357 345
142 141 204 238 269 195 99 295 180 141 156 152 142 143 236 161 135 128 130 142 154 168 161 147 180 168 120 109 286 284 335 332 339 355 11 358 347 355 348 2 13 352 343 345
134 172 286 245 206 108 93 236 164 161 162 163 181 183 139 127 108 123 135 152 149 154 165 189 172 132 155 148 244 264 308 331 3 11 8 21 358 24 5 353 344 359 346 323
97 85 276 173 83 172 209 1 159 147 161 138 113 109 123 116 132 141 148 150 153 155 175 201 180 156 182 218 247 276 307 336 340 348 334 339 16 9 10 22 12 355 339 318
164 205 226 225 191 182 163 151 175 144 140 133 129 151 147 146 147 154 156 158 158 164 171 202 196 183 186 239 254 292 325 332 332 317 286 271 300 313 317 8 355 326 336 325
94 225 223 234 232 182 174 158 144 131 143 152 141 149 139 142 150 153 156 162 165 158 173 190 200 205 225 276 290 311 323 325 335 337 309 288 267 249 260 275 283 284 301 305
255 284 340 244 218 180 125 109 105 96 133 144 135 149 149 151 158 159 155 163 160 162 167 177 174 226 270 279 282 286 319 327 338 333 329 320 291 263 249 233 214 239 240 254
208 203 169 213 182 165 144 158 152 133 120 117 137 151 144 155 159 150 159 155 149 155 157 161 160 265 295 268 232 45 11 348 319 313 324 321 320 318 228 246 238 235 238 230
193 150 118 47 134 132 132 139 142 136 140 145 132 144 149 144 160 161 151 161 158 165 165 155 148 30 309 278 157 138 215 262 301 315 313 309 319 324 315 322 265 255 251 239
146 113 75 175 188 137 123 117 111 94 106 127 138 133 138 145 153 158 167 180 159 156 169 173 255 313 306 256 243 283 327 263 295 304 297 293 290 295 279 288 310 311 297 259
183 43 141 110 105 107 117 129 125 135 133 126 143 150 150 157 164 174 165 168 160 167 188 237 259 278 273 217 258 298 317 315 309 300 295 292 290 283 281 283 276 279 302 293
106 96 120 130 141 140 140 145 144 151 147 136 154 164 164 158 154 157 158 156 153 198 224 220 249 254 210 212 227 269 279 278 292 307 310 310 302 282 286 284 287 286 286 280
110 111 109 133 162 168 180 170 164 160 147 157 171 150 145 151 148 158 169 182 201 214 227 211 235 255 233 187 192 227 271 294 297 299 296 307 304 289 286 285 284 286 279 280
219 179 181 169 163 159 154 152 148 152 163 157 143 149 154 164 173 171 179 181 193 211 226 230 235 229 191 197 208 216 290 297 308 312 311 312 308 307 319 317 315 310 319 317
207 179 163 161 166 160 155 156 158 144 135 146 152 169 166 164 162 164 164 164 172 182 239 194 188 201 205 230 242 226 254 297 309 309 302 324 358 4 359 353 353 4 1 7
171 159 138 132 148 155 152 146 142 142 146 146 136 141 158 167 158 158 161 173 186 193 181 185 176 205 234 258 198 250 265 276 307 350 38 62 44 30 28 32 30 31 28 27
184 165 159 157 161 156 158 149 147 154 155 156 162 169 169 161 157 151 144 160 225 201 202 197 183 202 237 266 285 283 309 45 70 75 65 57 45 38 37 32 36 32 27 23
168 161 163 155 156 151 147 147 141 138 150 154 145 141 146 154 154 159 167 168 169 176 139 133 155 203 251 253 316 78 94 97 92 79 65 55 50 47 46 41 35 27 25 24
188 170 164 157 157 148 130 139 141 147 154 161 158 158 162 164 161 147 152 187 166 131 127 120 125 117 97 110 104 99 96 93 86 76 68 64 58 52 47 38 32 26 25 25
158 151 141 126 124 131 134 140 137 142 149 147 149 153 148 151 159 160 120 147 141 121 127 148 117 101 99 94 87 87 85 82 78 75 73 64 56 46 40 32 29 24 24 23
152 137 134 141 144 141 127 130 118 124 132 134 144 151 152 158 164 180 162 145 116 118 127 102 110 104 97 92 89 86 82 76 75 75 66 60 52 46 42 39 38 30 26 22
143 137 136 134 138 133 132 135 135 139 137 136 139 151 145 146 143 149 164 127 135 119 113 125 112 101 98 96 95 89 85 80 74 68 67 60 53 49 42 38 33 28 26 22
104 118 108 104 110 123 129 132 135 144 142 147 148 148 141 135 141 149 126 140 113 106 111 107 102 96 101 100 95 90 85 78 67 72 65 62 57 51 45 40 39 34 26 24